This demonstration page uses our WeatherBlox Daily Observations layout. Learn more.

Left ArrowRight Arrow

Hourly Observations for November 4, 2022

Temp ( °F °C ) Dew Point ( °F °C ) Humidity (%) Winds ( mph kmh ) Pressure ( in mb ) Visibility ( mi km ) Precip ( " mm )
12:55 am 00:55 Cloudy 44 6.7 35 1.6 70 70 NW 22 35 29.89 1012 9 14 0.00 0.00
1:55 am 01:55 Cloudy 43 6.3 35 1.4 71 71 NNW 17 28 29.89 1012 10 16 0.00 0.00
2:22 am 02:22 Cloudy with Nearby Thunderstorms 43 6 34 1 70 70 N 12 19 29.88 1012 10 16 0.00 0.00
2:29 am 02:29 Cloudy with Thunderstorms 43 6 36 2 75 75 N 18 30 29.87 1011 10 16 0.00 0.00
2:55 am 02:55 Cloudy with Light Showers 42 5.6 37 2.6 81 81 NNW 18 30 29.91 1013 10 16 0.02 0.51
3:03 am 03:03 Cloudy with Light Showers 43 6 37 3 81 81 NNW 18 30 29.90 1013 10 16 0.00 0.00
3:33 am 03:33 Windy with Rain Showers Likely 43 6 37 3 81 81 NNW 20 31 29.93 1014 10 16 0.00 0.00
3:55 am 03:55 Windy with Rain Showers Likely 42 5.3 36 2.3 81 81 NNW 22 35 29.96 1015 10 16 0.01 0.13
4:13 am 04:13 Windy with Storms Likely 41 5 37 3 87 87 NNW 22 35 29.90 1013 10 16 0.00 0.00
4:55 am 04:55 Cloudy with Light Showers 40 4.7 37 2.6 86 86 NNW 17 28 29.91 1013 10 16 0.01 0.13
5:55 am 05:55 Cloudy with Light Rain 39 4.1 36 2.1 87 87 N 17 28 29.91 1013 10 16 0.00 0.00
6:55 am 06:55 Cloudy with Mist and Fog 38 3.3 34 1.2 86 86 NW 12 19 29.95 1014 6 10 0.00 0.00
7:56 am 07:56 Cloudy with Light Rain 37 2.9 34 0.9 87 87 NW 12 19 29.95 1014 6 10 0.60 15.24
8:55 am 08:55 Cloudy with Light Rain 37 2.6 33 0.8 88 88 NNW 13 20 29.95 1014 7 11 0.16 4.06
9:55 am 09:55 Cloudy with Light Rain 37 2.6 33 0.5 86 86 NW 8 13 30.03 1017 5 8 0.11 2.79
10:55 am 10:55 Cloudy 37 2.5 33 0.4 86 86 N 10 17 29.96 1015 10 16 0.00 0.00
11:55 am 11:55 Cloudy 38 3.2 34 0.9 85 85 NNW 10 17 29.99 1016 10 16 0.00 0.00
12:40 pm 12:40 Cloudy 39 4 34 1 81 81 NNW 12 19 29.96 1015 10 16 0.00 0.00
12:55 pm 12:55 Cloudy 38 3.6 33 0.6 81 81 N 12 19 29.96 1015 10 16 0.00 0.00
1:55 pm 13:55 Cloudy 39 4.1 33 0.4 77 77 NNW 15 24 29.94 1014 10 16 0.00 0.00
2:55 pm 14:55 Cloudy 40 4.6 33 0.4 74 74 NNW 14 22 29.90 1013 10 16 0.00 0.00
3:25 pm 15:25 Cloudy 41 5 32 0 70 70 N 14 22 29.91 1013 10 16 0.00 0.00
3:55 pm 15:55 Cloudy 40 4.7 33 0.5 74 74 N 12 19 29.90 1013 10 16 0.00 0.00
4:55 pm 16:55 Cloudy 41 5 33 0.6 73 73 N 10 17 29.91 1013 10 16 0.00 0.00
5:55 pm 17:55 Cloudy 41 5 32 0 70 70 N 10 17 29.88 1012 10 16 0.00 0.00
6:55 pm 18:55 Cloudy 41 4.8 31 -0.4 69 69 N 7 11 29.89 1012 10 16 0.00 0.00
7:55 pm 19:55 Cloudy 41 4.9 32 -0.1 70 70 N 6 9 29.91 1013 10 16 0.00 0.00
8:55 pm 20:55 Cloudy 41 4.8 32 0 71 71 N 9 15 29.86 1011 10 16 0.00 0.00
9:55 pm 21:55 Cloudy 40 4.7 32 -0.1 71 71 N 9 15 29.84 1011 10 16 0.00 0.00
10:55 pm 22:55 Cloudy 40 4.7 31 -0.5 69 69 N 12 19 29.84 1011 10 16 0.00 0.00
11:55 pm 23:55 Cloudy 40 4.5 31 -0.7 69 69 N 12 19 29.79 1009 10 16 0.00 0.00

Powered by AerisWeather